Location: Newark
(39.6867°N, 100.6772°W)
Time: 10:52:40
(UTC+00:00)

Courier 1B - Visible Passes

Search period start: 15 October 2019 00:00
Search period end: 25 October 2019 00:00
Orbit: 962 x 1209 km, 28.3° (Epoch: 14 October)

Date Brightness Start Highest point End Pass type
(mag) Time Alt. Az. Time Alt. Az. Time Alt. Az.
15 Oct 9.7 00:47:13 10° S 00:50:13 13° SSE 00:53:10 10° SE visible
15 Oct 9.2 02:37:21 10° SW 02:41:48 24° S 02:41:48 24° S visible
16 Oct 9.1 01:43:58 10° SSW 01:49:48 23° SSE 01:51:29 22° SE visible
16 Oct 9.8 03:36:36 10° WSW 03:38:22 17° SW 03:38:22 17° SW visible
17 Oct 9.4 00:50:50 10° SSW 00:56:06 20° SSE 01:01:07 10° ESE visible
17 Oct 9.0 02:42:52 10° SW 02:48:01 30° SSW 02:48:01 30° SSW visible
18 Oct 8.8 01:49:14 10° SW 01:55:47 30° SSE 01:57:37 27° SE visible
18 Oct 9.8 03:42:34 10° WSW 03:44:30 18° SW 03:44:30 18° SW visible
19 Oct 9.1 00:55:46 10° SW 01:02:03 27° SSE 01:07:12 14° ESE visible
19 Oct 8.9 02:48:42 10° WSW 02:54:05 32° SSW 02:54:05 32° SSW visible
20 Oct 8.7 01:54:56 10° SW 02:01:49 34° S 02:03:38 31° SSE visible
20 Oct 9.9 03:48:45 10° WSW 03:50:32 17° WSW 03:50:32 17° WSW visible
21 Oct 9.0 01:01:16 10° SW 01:08:03 32° S 01:13:11 16° ESE visible
21 Oct 9.0 02:54:47 10° WSW 03:00:04 31° SSW 03:00:04 31° SSW visible
22 Oct 8.7 02:00:55 10° WSW 02:07:53 35° S 02:09:36 32° SSE visible
22 Oct 10.1 03:55:11 10° WSW 03:56:30 14° WSW 03:56:30 14° WSW visible
23 Oct 8.9 01:07:07 10° WSW 01:14:05 35° S 01:19:09 17° ESE visible
23 Oct 9.2 03:01:05 10° WSW 03:06:03 28° SW 03:06:03 28° SW visible
24 Oct 9.0 00:13:27 10° SW 00:20:18 34° S 00:27:11 10° ESE visible
24 Oct 8.9 02:07:06 10° WSW 02:13:55 33° S 02:15:37 30° SSE visible
24 Oct 10.3 04:02:01 10° WSW 04:02:30 11° WSW 04:02:30 11° WSW visible
